| time (UTC) | temp F | wind direction | speed knots | gust knots | rain 1hr in | rain 24hr in | rain mn in | humidity % | barometer mb |
| 20260505234607 | 75 | 221 | 0.9 | 14.8 | 0.00 | 0.00 | 0.00 | 38 | 1013.8 |
| 20260505233051 | 76 | 221 | 3.5 | 12.2 | 0.00 | 0.00 | 0.00 | 36 | 1013.7 |
| 20260505231552 | 76 | 215 | 1.7 | 13.0 | 0.00 | 0.00 | 0.00 | 36 | 1013.6 |
| 20260505230051 | 77 | 0 | 1.7 | 10.4 | 0.00 | 0.00 | 0.00 | 35 | 1013.5 |
| 20260505224549 | 77 | 200 | 2.6 | 10.4 | 0.00 | 0.00 | 0.00 | 35 | 1013.6 |
| 20260505223055 | 77 | 213 | 0.0 | 12.2 | 0.00 | 0.00 | 0.00 | 34 | 1013.7 |
| 20260505221548 | 78 | 243 | 3.5 | 13.9 | 0.00 | 0.00 | 0.00 | 34 | 1013.8 |
| 20260505220050 | 78 | 170 | 3.5 | 12.2 | 0.00 | 0.00 | 0.00 | 35 | 1013.8 |
| 20260505214554 | 78 | 217 | 3.5 | 16.5 | 0.00 | 0.00 | 0.00 | 34 | 1014.0 |
| 20260505213043 | 79 | 232 | 2.6 | 8.7 | 0.00 | 0.00 | 0.00 | 33 | 1013.9 |
| 20260505211601 | 79 | 0 | 3.5 | 16.5 | 0.00 | 0.00 | 0.00 | 32 | 1014.1 |
| 20260505210048 | 80 | 279 | 0.9 | 11.3 | 0.00 | 0.00 | 0.00 | 32 | 1014.1 |
| 20260505204549 | 79 | 228 | 4.3 | 15.6 | 0.00 | 0.00 | 0.00 | 32 | 1014.1 |
| 20260505203110 | 80 | 171 | 2.6 | 9.6 | 0.00 | 0.00 | 0.00 | 32 | 1014.5 |
| 20260505201543 | 79 | 167 | 4.3 | 15.6 | 0.00 | 0.00 | 0.00 | 32 | 1014.4 |
| 20260505200040 | 80 | 105 | 2.6 | 12.2 | 0.00 | 0.00 | 0.00 | 30 | 1014.5 |
| 20260505194549 | 80 | 177 | 2.6 | 11.3 | 0.00 | 0.00 | 0.00 | 32 | 1014.8 |
| 20260505193049 | 79 | 134 | 3.5 | 12.2 | 0.00 | 0.00 | 0.00 | 35 | 1015.0 |
| 20260505191550 | 79 | 169 | 4.3 | 11.3 | 0.00 | 0.00 | 0.00 | 34 | 1015.1 |
| 20260505190043 | 79 | 261 | 1.7 | 9.6 | 0.00 | 0.00 | 0.00 | 34 | 1015.3 |
| 20260505184550 | 78 | 151 | 2.6 | 13.0 | 0.00 | 0.00 | 0.00 | 36 | 1015.7 |
| 20260505183050 | 78 | 209 | 4.3 | 20.9 | 0.00 | 0.00 | 0.00 | 35 | 1015.8 |
| 20260505181551 | 77 | 146 | 2.6 | 13.0 | 0.00 | 0.00 | 0.00 | 35 | 1016.0 |
| 20260505180056 | 78 | 216 | 3.5 | 8.7 | 0.00 | 0.00 | 0.00 | 35 | 1016.3 |
| 20260505174551 | 76 | 246 | 2.6 | 14.8 | 0.00 | 0.00 | 0.00 | 38 | 1016.2 |
| 20260505173057 | 76 | 225 | 4.3 | 11.3 | 0.00 | 0.00 | 0.00 | 37 | 1016.3 |
| 20260505171559 | 77 | 97 | 1.7 | 10.4 | 0.00 | 0.00 | 0.00 | 38 | 1016.3 |
| 20260505170055 | 77 | 190 | 1.7 | 7.8 | 0.00 | 0.00 | 0.00 | 37 | 1016.6 |
| 20260505164551 | 76 | 186 | 2.6 | 14.8 | 0.00 | 0.00 | 0.00 | 37 | 1016.7 |
| 20260505163051 | 77 | 167 | 0.9 | 9.6 | 0.00 | 0.00 | 0.00 | 38 | 1016.8 |
| 20260505161553 | 76 | 86 | 2.6 | 7.8 | 0.00 | 0.00 | 0.00 | 37 | 1016.8 |
| 20260505153053 | 75 | 208 | 1.7 | 8.7 | 0.00 | 0.00 | 0.00 | 43 | 1017.2 |
| 20260505151551 | 73 | 211 | 1.7 | 7.0 | 0.00 | 0.00 | 0.00 | 46 | 1017.3 |
| 20260505124551 | 62 | 0 | 0.9 | 6.1 | 0.00 | 0.00 | 0.00 | 66 | 1017.1 |
| 20260505123054 | 61 | 212 | 0.9 | 8.7 | 0.00 | 0.00 | 0.00 | 68 | 1016.9 |
| 20260505121549 | 60 | 0 | 0.9 | 11.3 | 0.00 | 0.00 | 0.00 | 70 | 1017.0 |
| 20260505120106 | 59 | 209 | 0.0 | 7.8 | 0.00 | 0.00 | 0.00 | 71 | 1016.9 |
| 20260505114547 | 58 | 161 | 0.9 | 7.8 | 0.00 | 0.00 | 0.00 | 72 | 1017.0 |
| 20260505113057 | 56 | 0 | 0.0 | 4.3 | 0.00 | 0.00 | 0.00 | 74 | 1016.8 |
| 20260505111545 | 55 | 0 | 0.0 | 1.7 | 0.00 | 0.00 | 0.00 | 76 | 1016.7 |
| 20260505101557 | 55 | 0 | 0.0 | 1.7 | 0.00 | 0.00 | 0.00 | 74 | 1016.5 |
| 20260505100046 | 55 | 0 | 0.0 | 2.6 | 0.00 | 0.00 | 0.00 | 73 | 1016.4 |
| 20260505094558 | 55 | 0 | 0.0 | 0.9 | 0.00 | 0.00 | 0.00 | 73 | 1016.4 |
| 20260505093053 | 55 | 0 | 0.0 | 0.9 | 0.00 | 0.00 | 0.00 | 71 | 1016.3 |
| 20260505091550 | 55 | 0 | 0.0 | 0.0 | 0.00 | 0.00 | 0.00 | 71 | 1016.3 |
| 20260505090056 | 56 | 0 | 0.0 | 0.9 | 0.00 | 0.00 | 0.00 | 70 | 1016.1 |
| 20260505084548 | 57 | 0 | 0.0 | 0.9 | 0.00 | 0.00 | 0.00 | 68 | 1015.8 |
| 20260505083103 | 57 | 0 | 0.0 | 0.9 | 0.00 | 0.00 | 0.00 | 66 | 1015.7 |
| 20260505081551 | 58 | 0 | 0.0 | 2.6 | 0.00 | 0.00 | 0.00 | 65 | 1015.6 |
| 20260505080051 | 59 | 0 | 0.0 | 5.2 | 0.00 | 0.00 | 0.00 | 63 | 1015.5 |
| 20260505074548 | 59 | 0 | 0.0 | 4.3 | 0.00 | 0.00 | 0.00 | 62 | 1015.4 |
| 20260505073049 | 60 | 0 | 0.0 | 4.3 | 0.00 | 0.00 | 0.00 | 61 | 1015.3 |
| 20260505071545 | 60 | 0 | 0.0 | 7.0 | 0.00 | 0.00 | 0.00 | 60 | 1015.4 |
| 20260505070059 | 60 | 0 | 0.9 | 7.0 | 0.00 | 0.00 | 0.00 | 58 | 1015.1 |
| 20260505064550 | 61 | 266 | 1.7 | 7.0 | 0.00 | 0.00 | 0.00 | 56 | 1015.2 |
| 20260505063046 | 61 | 0 | 1.7 | 7.8 | 0.00 | 0.00 | 0.00 | 54 | 1015.3 |
| 20260505061611 | 62 | 0 | 0.9 | 6.1 | 0.00 | 0.00 | 0.00 | 52 | 1015.2 |
| 20260505060052 | 62 | 213 | 0.0 | 4.3 | 0.00 | 0.00 | 0.00 | 50 | 1015.1 |
| 20260505054548 | 62 | 200 | 0.9 | 6.1 | 0.00 | 0.00 | 0.00 | 49 | 1015.2 |
| 20260505053054 | 63 | 167 | 0.0 | 4.3 | 0.00 | 0.00 | 0.00 | 47 | 1015.3 |
| 20260505051543 | 64 | 124 | 0.0 | 4.3 | 0.00 | 0.00 | 0.00 | 45 | 1015.3 |
| 20260505041548 | 66 | 229 | 0.0 | 3.5 | 0.00 | 0.00 | 0.00 | 40 | 1015.3 |
| 20260505034550 | 66 | 223 | 0.0 | 3.5 | 0.00 | 0.00 | 0.00 | 37 | 1015.3 |
| 20260505033100 | 66 | 0 | 0.0 | 3.5 | 0.00 | 0.00 | 0.00 | 36 | 1015.4 |
| 20260505031555 | 67 | 105 | 0.9 | 5.2 | 0.00 | 0.00 | 0.00 | 36 | 1015.5 |
| 20260505030055 | 68 | 0 | 0.0 | 5.2 | 0.00 | 0.00 | 0.00 | 35 | 1015.4 |
| 20260505024552 | 68 | 199 | 0.0 | 3.5 | 0.00 | 0.00 | 0.00 | 34 | 1015.4 |
| 20260505023054 | 69 | 213 | 1.7 | 7.8 | 0.00 | 0.00 | 0.00 | 33 | 1015.3 |
| 20260505021553 | 69 | 244 | 1.7 | 7.0 | 0.00 | 0.00 | 0.00 | 33 | 1015.1 |
| 20260505020046 | 69 | 0 | 0.0 | 7.0 | 0.00 | 0.00 | 0.00 | 33 | 1015.1 |
| 20260505014549 | 70 | 0 | 0.0 | 3.5 | 0.00 | 0.00 | 0.00 | 33 | 1015.0 |
| 20260505013050 | 70 | 220 | 0.9 | 4.3 | 0.00 | 0.00 | 0.00 | 32 | 1014.9 |
| 20260505011551 | 71 | 0 | 0.0 | 8.7 | 0.00 | 0.00 | 0.00 | 32 | 1014.6 |
| 20260505010104 | 71 | 0 | 0.0 | 3.5 | 0.00 | 0.00 | 0.00 | 32 | 1014.4 |
| 20260505004552 | 71 | 0 | 0.0 | 2.6 | 0.00 | 0.00 | 0.00 | 32 | 1014.3 |
| 20260505003045 | 72 | 0 | 0.0 | 2.6 | 0.00 | 0.00 | 0.00 | 32 | 1014.2 |
| 20260505001551 | 73 | 209 | 0.0 | 5.2 | 0.00 | 0.00 | 0.00 | 32 | 1014.1 |
| 20260505000101 | 73 | 224 | 0.0 | 5.2 | 0.00 | 0.00 | 0.00 | 31 | 1014.1 |